Location: Colonia Mina de C?rbuni
(46.1667°N, 22.7167°E)
Time: 09:57:29
(UTC+00:00)

Vanguard 1 - Pass Details

Date: 21 April 2024
Orbit: 652 x 3825 km, 34.2° (Epoch: 29 May)

Event Time Altitude Azimuth Distance (km) Brightness Sun altitude
Exits shadow 22:58:13 14° 143° (SE) 6,494 13.8 -31.1°
Maximum altitude 23:01:46 15° 133° (SE) 6,367 13.9 -31.0°
Drops below altitude 10° 23:11:24 10° 106° (ESE) 6,417 14.1 -30.7°
Sets 23:19:05 0° 87° (E) 6,916 14.6 -30.4°
